This is the latest recevied weather packets stored in our database for station/object SV4JYD-14. If no packets are shown the sender has not sent any weather packets the latest 10 day(s).
| Time | Temp. | Humidity | Pressure | Rain* | Wind** | Luminosity | Snow |
|---|---|---|---|---|---|---|---|
| 1778138114 | 20.56° C | 53% | 1019 hPa | 0 mm | - | - | - |
| 1778137213 | 20° C | 53% | 1019 hPa | 0 mm | - | - | - |
| 1778136313 | 19.44° C | 52% | 1019 hPa | 0 mm | - | - | - |
| 1778135413 | 19.44° C | 60% | 1019 hPa | 0 mm | - | - | - |
| 1778134512 | 18.89° C | 64% | 1020 hPa | 0 mm | - | - | - |
| 1778133612 | 18.33° C | 69% | 1019 hPa | 0 mm | - | - | - |
| 1778132712 | 17.78° C | 69% | 1019 hPa | 0 mm | - | - | - |
| 1778131812 | 17.22° C | 72% | 1019 hPa | 0 mm | - | - | - |
| 1778130911 | 16.11° C | 74% | 1019 hPa | 0 mm | - | - | - |
| 1778130011 | 15.56° C | 76% | 1018 hPa | 0 mm | - | - | - |
| 1778129111 | 14.44° C | 77% | 1018 hPa | 0 mm | - | - | - |
| 1778128211 | 13.89° C | 78% | 1018 hPa | 0 mm | - | - | - |
| 1778127310 | 13.33° C | 78% | 1019 hPa | 0 mm | - | - | - |
| 1778123850 | 13.33° C | 74% | 1018 hPa | 0 mm | - | - | - |
| 1778122950 | 13.33° C | 72% | 1017 hPa | 0 mm | - | - | - |
| 1778122050 | 13.89° C | 71% | 1017 hPa | 0 mm | - | - | - |
| 1778121149 | 13.89° C | 70% | 1017 hPa | 0 mm | - | - | - |
| 1778120249 | 13.89° C | 70% | 1018 hPa | 0 mm | - | - | - |
| 1778119349 | 13.33° C | 69% | 1017 hPa | 0 mm | - | - | - |
| 1778118448 | 13.33° C | 69% | 1017 hPa | 0 mm | - | - | - |
| 1778117548 | 13.33° C | 69% | 1017 hPa | 0 mm | - | - | - |
| 1778116648 | 13.33° C | 68% | 1018 hPa | 0 mm | - | - | - |
| 1778115747 | 13.33° C | 65% | 1017 hPa | 0 mm | - | - | - |
| 1778114847 | 13.33° C | 64% | 1017 hPa | 0 mm | - | - | - |
| 1778113947 | 13.89° C | 63% | 1017 hPa | 0 mm | - | - | - |
* Rain latest hour (hover to see other rain measurements)
** Current wind speed in m/s (hover to see current wind gust speed)